FPO4508 ESGG-LFPG

Flight info

Callsign FPO4508
Flight time 1h 46m
Altitude 34000
Route VADIN M852 ALS Z703 KESUR DCT BUB DCT NILEM/N0437F330 DCT MOPIL
Aircraft B738/M-SDE2E3FGHIRWXY/LB1

Departure

Time 2026-05-08 17:51
Airport Göteborg Landvetter Airport (ESGG)

Arrival

Time 2026-05-08 19:37
Airport Charles de Gaulle International Airport (LFPG)
Time Latitude Longitude Altitude Speed Heading
2026-05-08 17:01 57.67221 12.29714 519 ft 0 kts 116°
2026-05-08 17:26 57.67218 12.29711 517 ft 0 kts 116°
2026-05-08 17:30 57.67221 12.29714 518 ft 0 kts 116°
2026-05-08 17:43 57.67223 12.29706 528 ft 3 kts 116°
2026-05-08 17:43 57.67232 12.29672 527 ft 3 kts 116°
2026-05-08 17:43 57.67242 12.29639 525 ft 3 kts 121°
2026-05-08 17:44 57.67249 12.29619 523 ft 1 kts 141°
2026-05-08 17:44 57.67257 12.29610 522 ft 1 kts 180°
2026-05-08 17:44 57.67265 12.29612 522 ft 1 kts 200°
2026-05-08 17:44 57.67273 12.29618 522 ft 1 kts 204°
2026-05-08 17:45 57.67275 12.29620 522 ft 0 kts 204°
2026-05-08 17:48 57.67265 12.29612 522 ft 5 kts 204°
2026-05-08 17:48 57.67216 12.29569 522 ft 9 kts 210°
2026-05-08 17:48 57.67218 12.29448 519 ft 13 kts 304°
2026-05-08 17:48 57.67296 12.29410 519 ft 13 kts 26°
2026-05-08 17:49 57.67373 12.29483 522 ft 12 kts 20°
2026-05-08 17:49 57.67431 12.29397 524 ft 9 kts 298°
2026-05-08 17:49 57.67458 12.29289 522 ft 1 kts 284°
2026-05-08 17:49 57.67460 12.29254 521 ft 5 kts 270°
2026-05-08 17:50 57.67459 12.29176 518 ft 7 kts 263°
2026-05-08 17:50 57.67444 12.29069 518 ft 10 kts 248°
2026-05-08 17:50 57.67389 12.28983 520 ft 11 kts 206°
2026-05-08 17:50 57.67197 12.28808 526 ft 63 kts 206°
2026-05-08 17:51 57.66597 12.28261 522 ft 128 kts 206°
2026-05-08 17:51 57.65622 12.27388 651 ft 171 kts 205°
2026-05-08 17:51 57.64542 12.26424 1411 ft 172 kts 208°
2026-05-08 17:51 57.63468 12.25458 2229 ft 173 kts 207°
2026-05-08 17:52 57.62367 12.24475 2794 ft 188 kts 206°
2026-05-08 17:52 57.61083 12.23418 3025 ft 213 kts 195°
2026-05-08 17:52 57.57892 12.22953 3642 ft 247 kts 183°
2026-05-08 17:53 57.56145 12.22690 4243 ft 256 kts 183°
2026-05-08 17:53 57.54370 12.22378 5153 ft 255 kts 184°
2026-05-08 17:53 57.52603 12.22007 5988 ft 257 kts 184°
2026-05-08 17:53 57.50801 12.21623 6774 ft 262 kts 184°
2026-05-08 17:54 57.49002 12.21242 7519 ft 265 kts 184°
2026-05-08 17:54 57.47164 12.20855 8279 ft 268 kts 185°
2026-05-08 17:54 57.45290 12.20462 9020 ft 272 kts 186°
2026-05-08 17:54 57.43469 12.19438 9747 ft 278 kts 211°
2026-05-08 17:55 57.41971 12.17142 10517 ft 281 kts 223°
2026-05-08 17:55 57.40541 12.14482 10781 ft 302 kts 225°
2026-05-08 17:55 57.39031 12.11589 10955 ft 324 kts 225°
2026-05-08 17:55 57.37416 12.08489 11327 ft 337 kts 225°
2026-05-08 17:56 57.35788 12.05384 11940 ft 342 kts 225°
2026-05-08 17:56 57.34117 12.02217 12651 ft 345 kts 225°
2026-05-08 17:56 57.32425 11.99028 13370 ft 349 kts 224°
2026-05-08 17:56 57.30708 11.95805 14138 ft 351 kts 224°
2026-05-08 17:57 57.28981 11.92576 14833 ft 354 kts 224°
2026-05-08 17:57 57.27832 11.90431 15266 ft 357 kts 224°
2026-05-08 17:57 57.26072 11.87150 15930 ft 361 kts 224°
2026-05-08 17:57 57.24293 11.83840 16602 ft 364 kts 225°
2026-05-08 17:58 57.22500 11.80506 17267 ft 368 kts 225°
2026-05-08 17:58 57.20087 11.76029 18134 ft 374 kts 225°
2026-05-08 17:58 57.18843 11.73721 18567 ft 376 kts 225°
2026-05-08 17:58 57.16984 11.70281 19128 ft 380 kts 225°
2026-05-08 17:59 57.15112 11.66824 19721 ft 382 kts 225°
2026-05-08 17:59 57.13059 11.63692 20266 ft 386 kts 209°
2026-05-08 17:59 57.10629 11.61696 20845 ft 388 kts 202°
2026-05-08 17:59 57.08119 11.59797 21376 ft 392 kts 203°
2026-05-08 18:00 57.05581 11.57867 21905 ft 396 kts 203°
2026-05-08 18:00 57.00454 11.53924 22986 ft 401 kts 203°
2026-05-08 18:00 56.97872 11.51923 23501 ft 405 kts 204°
2026-05-08 18:01 56.95271 11.49901 23974 ft 408 kts 204°
2026-05-08 18:01 56.92652 11.47864 24247 ft 410 kts 204°
2026-05-08 18:01 56.90020 11.45819 24262 ft 409 kts 204°
2026-05-08 18:01 56.87394 11.43781 24269 ft 410 kts 204°
2026-05-08 18:02 56.84765 11.41744 24273 ft 411 kts 204°
2026-05-08 18:02 56.82156 11.39724 24353 ft 415 kts 204°
2026-05-08 18:02 56.79449 11.37633 24763 ft 417 kts 204°
2026-05-08 18:02 56.76821 11.35606 25294 ft 416 kts 203°
2026-05-08 18:03 56.74116 11.33523 25760 ft 417 kts 203°
2026-05-08 18:03 56.71468 11.31487 26159 ft 419 kts 203°
2026-05-08 18:03 56.68775 11.29419 26564 ft 421 kts 203°
2026-05-08 18:03 56.66061 11.27339 26956 ft 424 kts 203°
2026-05-08 18:04 56.63329 11.25249 27316 ft 426 kts 202°
2026-05-08 18:04 56.60583 11.23150 27675 ft 429 kts 202°
2026-05-08 18:04 56.57818 11.21042 28059 ft 431 kts 203°
2026-05-08 18:04 56.55046 11.18930 28410 ft 433 kts 202°
2026-05-08 18:05 56.52261 11.16812 28737 ft 436 kts 202°
2026-05-08 18:05 56.49462 11.14686 29075 ft 438 kts 202°
2026-05-08 18:05 56.46681 11.12579 29449 ft 438 kts 202°
2026-05-08 18:05 56.43861 11.10445 29875 ft 438 kts 202°
2026-05-08 18:06 56.41050 11.08320 30339 ft 437 kts 202°
2026-05-08 18:06 56.38253 11.06210 30766 ft 435 kts 202°
2026-05-08 18:06 56.35466 11.04109 31169 ft 434 kts 202°
2026-05-08 18:06 56.32679 11.02013 31425 ft 436 kts 203°
2026-05-08 18:07 56.29862 10.99897 31641 ft 439 kts 203°
2026-05-08 18:07 56.27045 10.97785 31995 ft 438 kts 203°
2026-05-08 18:07 56.24238 10.95683 32415 ft 436 kts 203°
2026-05-08 18:07 56.21436 10.93584 32777 ft 435 kts 203°
2026-05-08 18:08 56.18640 10.91492 33082 ft 435 kts 203°
2026-05-08 18:08 56.15842 10.89403 33389 ft 435 kts 203°
2026-05-08 18:08 56.13074 10.87341 33726 ft 435 kts 203°
2026-05-08 18:08 56.10272 10.85261 34067 ft 434 kts 203°
2026-05-08 18:09 56.07486 10.83199 34288 ft 436 kts 204°
2026-05-08 18:09 56.04660 10.81109 34263 ft 440 kts 204°
2026-05-08 18:09 55.99007 10.76938 34264 ft 438 kts 204°
2026-05-08 18:10 55.93409 10.72820 34265 ft 433 kts 204°
2026-05-08 18:10 55.87837 10.68732 34271 ft 433 kts 203°
2026-05-08 18:11 55.82283 10.64670 34262 ft 434 kts 204°
2026-05-08 18:11 55.76689 10.60591 34266 ft 434 kts 204°
2026-05-08 18:12 55.71091 10.56522 34262 ft 435 kts 204°
2026-05-08 18:12 55.65479 10.52455 34262 ft 435 kts 204°
2026-05-08 18:13 55.59904 10.48428 34263 ft 436 kts 204°
2026-05-08 18:13 55.54284 10.44380 34269 ft 438 kts 204°
2026-05-08 18:14 55.48581 10.40284 34277 ft 446 kts 204°
2026-05-08 18:14 55.42818 10.36161 34264 ft 447 kts 204°
2026-05-08 18:15 55.37056 10.32051 34263 ft 446 kts 204°
2026-05-08 18:15 55.31302 10.27960 34250 ft 446 kts 204°
2026-05-08 18:16 55.25556 10.23886 34260 ft 445 kts 204°
2026-05-08 18:16 55.19815 10.19829 34254 ft 445 kts 204°
2026-05-08 18:17 55.14076 10.15785 34252 ft 444 kts 204°
2026-05-08 18:17 55.08339 10.11755 34230 ft 444 kts 205°
2026-05-08 18:18 55.02641 10.07765 34243 ft 443 kts 205°
2026-05-08 18:18 54.96916 10.03765 34241 ft 443 kts 204°
2026-05-08 18:19 54.91265 9.99491 34232 ft 440 kts 213°
2026-05-08 18:19 54.86509 9.92973 34247 ft 435 kts 227°
2026-05-08 18:20 54.82168 9.85672 34234 ft 435 kts 225°
2026-05-08 18:20 54.77631 9.78691 34236 ft 436 kts 224°
2026-05-08 18:21 54.73080 9.71862 34221 ft 436 kts 224°
2026-05-08 18:21 54.68499 9.64954 34222 ft 436 kts 224°
2026-05-08 18:22 54.63929 9.58036 34217 ft 437 kts 224°
2026-05-08 18:22 54.59354 9.51115 34239 ft 438 kts 224°
2026-05-08 18:23 54.57053 9.47638 34420 ft 440 kts 224°
2026-05-08 18:23 54.54779 9.44209 34693 ft 438 kts 224°
2026-05-08 18:23 54.52478 9.40747 34990 ft 437 kts 223°
2026-05-08 18:23 54.50190 9.37309 35272 ft 436 kts 223°
2026-05-08 18:24 54.47904 9.33879 35491 ft 436 kts 223°
2026-05-08 18:24 54.45616 9.30451 35686 ft 437 kts 223°
2026-05-08 18:24 54.43322 9.27019 35904 ft 437 kts 223°
2026-05-08 18:24 54.41022 9.23584 36141 ft 436 kts 223°
2026-05-08 18:25 54.36420 9.16726 36200 ft 440 kts 223°
2026-05-08 18:25 54.31838 9.09920 36196 ft 436 kts 223°
2026-05-08 18:26 54.27250 9.03129 36190 ft 433 kts 223°
2026-05-08 18:26 54.22697 8.96406 36196 ft 431 kts 223°
2026-05-08 18:27 54.18918 8.90842 36189 ft 431 kts 223°
2026-05-08 18:27 54.13604 8.83040 36188 ft 431 kts 223°
2026-05-08 18:28 54.09066 8.76400 36183 ft 433 kts 223°
2026-05-08 18:28 54.04475 8.69702 36178 ft 435 kts 223°
2026-05-08 18:29 53.99868 8.63001 36169 ft 437 kts 223°
2026-05-08 18:29 53.95238 8.56288 36166 ft 438 kts 223°
2026-05-08 18:30 53.90585 8.49562 36159 ft 439 kts 223°
2026-05-08 18:30 53.85925 8.42847 36172 ft 440 kts 223°
2026-05-08 18:31 53.81248 8.36127 36165 ft 440 kts 223°
2026-05-08 18:31 53.76604 8.29476 36170 ft 440 kts 223°
2026-05-08 18:32 53.71934 8.22806 36162 ft 439 kts 223°
2026-05-08 18:32 53.67257 8.16147 36162 ft 439 kts 223°
2026-05-08 18:33 53.62586 8.09516 36159 ft 438 kts 223°
2026-05-08 18:33 53.57947 8.02951 36159 ft 438 kts 223°
2026-05-08 18:34 53.53254 7.96328 36158 ft 437 kts 222°
2026-05-08 18:34 53.48625 7.89815 36159 ft 437 kts 222°
2026-05-08 18:35 53.43959 7.83270 36154 ft 436 kts 222°
2026-05-08 18:35 53.39295 7.76747 36158 ft 436 kts 222°
2026-05-08 18:36 53.34630 7.70241 36151 ft 437 kts 222°
2026-05-08 18:36 53.29952 7.63736 36158 ft 437 kts 222°
2026-05-08 18:37 53.25283 7.57263 36154 ft 438 kts 222°
2026-05-08 18:37 53.20576 7.50757 36151 ft 440 kts 222°
2026-05-08 18:38 53.15853 7.44247 36153 ft 441 kts 222°
2026-05-08 18:38 53.11115 7.37737 36148 ft 442 kts 222°
2026-05-08 18:39 53.06353 7.31213 36144 ft 443 kts 222°
2026-05-08 18:39 53.01619 7.24745 36132 ft 443 kts 222°
2026-05-08 18:40 52.96848 7.18248 36142 ft 443 kts 222°
2026-05-08 18:40 52.92084 7.11779 36138 ft 442 kts 222°
2026-05-08 18:41 52.87321 7.05330 36123 ft 442 kts 222°
2026-05-08 18:41 52.82545 6.98882 36133 ft 442 kts 222°
2026-05-08 18:42 52.78578 6.93540 36127 ft 443 kts 222°
2026-05-08 18:42 52.73795 6.87117 36130 ft 443 kts 222°
2026-05-08 18:43 52.69007 6.80707 36138 ft 444 kts 222°
2026-05-08 18:43 52.64198 6.74286 36141 ft 444 kts 221°
2026-05-08 18:44 52.59416 6.67921 36126 ft 445 kts 221°
2026-05-08 18:44 52.54596 6.61523 36135 ft 445 kts 221°
2026-05-08 18:45 52.49776 6.55144 36119 ft 445 kts 221°
2026-05-08 18:45 52.44945 6.48769 36119 ft 445 kts 221°
2026-05-08 18:46 52.40105 6.42401 36111 ft 446 kts 221°
2026-05-08 18:46 52.35263 6.36048 36112 ft 446 kts 221°
2026-05-08 18:47 52.30438 6.29736 36115 ft 447 kts 221°
2026-05-08 18:47 52.25568 6.23383 36116 ft 448 kts 221°
2026-05-08 18:48 52.20684 6.17031 36122 ft 449 kts 221°
2026-05-08 18:48 52.15792 6.10687 36120 ft 449 kts 221°
2026-05-08 18:49 52.10927 6.04396 36128 ft 450 kts 221°
2026-05-08 18:49 52.06019 5.98067 36128 ft 450 kts 221°
2026-05-08 18:50 52.01112 5.91758 36115 ft 450 kts 221°
2026-05-08 18:50 51.96195 5.85456 36098 ft 450 kts 221°
2026-05-08 18:51 51.91269 5.79158 36102 ft 450 kts 221°
2026-05-08 18:51 51.86368 5.72911 36107 ft 450 kts 221°
2026-05-08 18:52 51.81434 5.66640 36105 ft 451 kts 221°
2026-05-08 18:52 51.76487 5.60369 36109 ft 452 kts 221°
2026-05-08 18:53 51.71533 5.54109 36109 ft 452 kts 221°
2026-05-08 18:53 51.66567 5.47852 36106 ft 452 kts 220°
2026-05-08 18:54 51.61603 5.41614 36103 ft 453 kts 220°
2026-05-08 18:54 51.56657 5.35417 36104 ft 452 kts 220°
2026-05-08 18:55 51.49197 5.26103 36090 ft 452 kts 221°
2026-05-08 18:56 51.44229 5.19922 36101 ft 452 kts 221°
2026-05-08 18:56 51.39252 5.13747 36106 ft 453 kts 221°
2026-05-08 18:57 51.34259 5.07570 36106 ft 453 kts 221°
2026-05-08 18:57 51.29263 5.01407 36107 ft 454 kts 221°
2026-05-08 18:58 51.24252 4.95243 36104 ft 454 kts 221°
2026-05-08 18:58 51.19236 4.89089 36100 ft 455 kts 221°
2026-05-08 18:59 51.14217 4.82950 36110 ft 455 kts 220°
2026-05-08 18:59 51.09192 4.76820 36106 ft 455 kts 220°
2026-05-08 19:00 51.04157 4.70695 36089 ft 455 kts 221°
2026-05-08 19:00 50.99124 4.64588 36101 ft 455 kts 221°
2026-05-08 19:01 50.94080 4.58484 36111 ft 455 kts 221°
2026-05-08 19:01 50.88880 4.52720 36092 ft 461 kts 210°
2026-05-08 19:02 50.83030 4.48597 36101 ft 463 kts 206°
2026-05-08 19:02 50.80042 4.46581 35869 ft 467 kts 207°
2026-05-08 19:02 50.77052 4.44552 35424 ft 466 kts 207°
2026-05-08 19:02 50.74089 4.42524 34986 ft 462 kts 207°
2026-05-08 19:03 50.71145 4.40492 34540 ft 459 kts 207°
2026-05-08 19:03 50.68227 4.38468 34082 ft 457 kts 208°
2026-05-08 19:03 50.65359 4.36474 33591 ft 454 kts 208°
2026-05-08 19:03 50.62471 4.34466 33136 ft 451 kts 207°
2026-05-08 19:04 50.59610 4.32481 32703 ft 447 kts 207°
2026-05-08 19:04 50.56765 4.30511 32275 ft 444 kts 207°
2026-05-08 19:04 50.53947 4.28562 31859 ft 441 kts 207°
2026-05-08 19:04 50.51140 4.26624 31450 ft 438 kts 207°
2026-05-08 19:05 50.48353 4.24702 31039 ft 436 kts 207°
2026-05-08 19:05 50.45617 4.22818 30635 ft 434 kts 207°
2026-05-08 19:05 50.42856 4.20918 30224 ft 431 kts 207°
2026-05-08 19:05 50.40112 4.19033 29754 ft 429 kts 206°
2026-05-08 19:06 50.37382 4.17159 29298 ft 426 kts 206°
2026-05-08 19:06 50.34669 4.15301 28865 ft 423 kts 206°
2026-05-08 19:06 50.31988 4.13479 28450 ft 419 kts 204°
2026-05-08 19:06 50.29211 4.12111 28051 ft 418 kts 194°
2026-05-08 19:07 50.26334 4.11449 27639 ft 416 kts 185°
2026-05-08 19:07 50.23474 4.11217 27242 ft 412 kts 183°
2026-05-08 19:07 50.20613 4.11084 26845 ft 409 kts 182°
2026-05-08 19:07 50.17782 4.10949 26449 ft 406 kts 182°
2026-05-08 19:08 50.14971 4.10794 26063 ft 402 kts 183°
2026-05-08 19:08 50.12183 4.10611 25679 ft 399 kts 183°
2026-05-08 19:08 50.09423 4.10552 25434 ft 394 kts 174°
2026-05-08 19:08 50.06743 4.11664 25140 ft 407 kts 154°
2026-05-08 19:09 50.04278 4.13928 24866 ft 416 kts 144°
2026-05-08 19:09 50.01905 4.16531 24555 ft 417 kts 143°
2026-05-08 19:09 49.99606 4.19136 24309 ft 410 kts 144°
2026-05-08 19:09 49.97041 4.20954 24090 ft 403 kts 169°
2026-05-08 19:10 49.94237 4.20980 24079 ft 408 kts 192°
2026-05-08 19:10 49.91569 4.19618 24077 ft 398 kts 207°
2026-05-08 19:10 49.89158 4.17490 24092 ft 403 kts 215°
2026-05-08 19:10 49.86947 4.14744 24082 ft 414 kts 226°
2026-05-08 19:11 49.84890 4.11529 24094 ft 426 kts 227°
2026-05-08 19:11 49.82793 4.08200 24092 ft 435 kts 227°
2026-05-08 19:11 49.80675 4.04840 24072 ft 435 kts 227°
2026-05-08 19:11 49.78561 4.01510 24056 ft 431 kts 226°
2026-05-08 19:12 49.76452 3.98207 23475 ft 430 kts 226°
2026-05-08 19:12 49.74398 3.95010 22937 ft 418 kts 226°
2026-05-08 19:12 49.72375 3.91873 22378 ft 406 kts 226°
2026-05-08 19:12 49.70405 3.88824 21842 ft 396 kts 226°
2026-05-08 19:13 49.68479 3.85847 21315 ft 387 kts 226°
2026-05-08 19:13 49.66594 3.82935 20801 ft 379 kts 226°
2026-05-08 19:13 49.64740 3.80073 20311 ft 376 kts 226°
2026-05-08 19:13 49.62895 3.77229 19879 ft 373 kts 225°
2026-05-08 19:14 49.61065 3.74409 19467 ft 370 kts 225°
2026-05-08 19:14 49.59249 3.71616 19056 ft 366 kts 225°
2026-05-08 19:14 49.57478 3.68894 18665 ft 363 kts 225°
2026-05-08 19:14 49.55694 3.66155 18252 ft 360 kts 225°
2026-05-08 19:15 49.53928 3.63448 17760 ft 357 kts 225°
2026-05-08 19:15 49.52168 3.60752 17305 ft 355 kts 225°
2026-05-08 19:15 49.50428 3.58089 16880 ft 351 kts 225°
2026-05-08 19:15 49.48699 3.55445 16425 ft 349 kts 225°
2026-05-08 19:16 49.46977 3.52815 15969 ft 347 kts 225°
2026-05-08 19:16 49.45272 3.50213 15571 ft 344 kts 225°
2026-05-08 19:16 49.43576 3.47630 15184 ft 340 kts 225°
2026-05-08 19:16 49.41977 3.44980 14738 ft 339 kts 235°
2026-05-08 19:17 49.40931 3.41747 14313 ft 337 kts 248°
2026-05-08 19:17 49.40060 3.38424 13924 ft 335 kts 248°
2026-05-08 19:17 49.39198 3.35108 13483 ft 332 kts 248°
2026-05-08 19:17 49.38342 3.31828 13071 ft 330 kts 248°
2026-05-08 19:18 49.37487 3.28582 12653 ft 327 kts 248°
2026-05-08 19:18 49.36632 3.25365 12241 ft 324 kts 247°
2026-05-08 19:18 49.35782 3.22181 11842 ft 321 kts 247°
2026-05-08 19:18 49.34936 3.19025 11447 ft 319 kts 247°
2026-05-08 19:19 49.34095 3.15902 11111 ft 316 kts 247°
2026-05-08 19:19 49.33249 3.12764 11088 ft 319 kts 247°
2026-05-08 19:19 49.32402 3.09630 11071 ft 317 kts 247°
2026-05-08 19:19 49.31554 3.06497 11069 ft 319 kts 247°
2026-05-08 19:20 49.30704 3.03359 11066 ft 319 kts 247°
2026-05-08 19:20 49.30428 3.02343 11061 ft 319 kts 247°
2026-05-08 19:20 49.28998 2.97080 11061 ft 318 kts 247°
2026-05-08 19:20 49.28146 2.93947 11055 ft 316 kts 247°
2026-05-08 19:21 49.27316 2.90901 11049 ft 304 kts 247°
2026-05-08 19:21 49.26531 2.88024 11045 ft 290 kts 247°
2026-05-08 19:21 49.25769 2.85233 11050 ft 280 kts 247°
2026-05-08 19:21 49.25014 2.82471 11059 ft 277 kts 247°
2026-05-08 19:22 49.24275 2.79775 11061 ft 279 kts 247°
2026-05-08 19:22 49.23521 2.77024 11067 ft 281 kts 247°
2026-05-08 19:22 49.22763 2.74264 11058 ft 282 kts 247°
2026-05-08 19:22 49.22004 2.71500 11070 ft 283 kts 247°
2026-05-08 19:23 49.21238 2.68713 11057 ft 283 kts 247°
2026-05-08 19:23 49.20473 2.65930 11054 ft 284 kts 247°
2026-05-08 19:23 49.19964 2.64086 11043 ft 283 kts 247°
2026-05-08 19:23 49.19200 2.61320 10877 ft 281 kts 247°
2026-05-08 19:24 49.18444 2.58581 10581 ft 279 kts 248°
2026-05-08 19:24 49.17993 2.55709 10196 ft 280 kts 267°
2026-05-08 19:24 49.17956 2.52726 9900 ft 279 kts 269°
2026-05-08 19:24 49.17921 2.49768 9557 ft 278 kts 268°
2026-05-08 19:25 49.17873 2.46821 9198 ft 277 kts 268°
2026-05-08 19:25 49.17816 2.43876 8868 ft 276 kts 268°
2026-05-08 19:25 49.17761 2.40945 8557 ft 275 kts 268°
2026-05-08 19:25 49.17712 2.38023 8220 ft 275 kts 268°
2026-05-08 19:26 49.17666 2.35102 7905 ft 274 kts 268°
2026-05-08 19:26 49.17626 2.32196 7603 ft 272 kts 268°
2026-05-08 19:26 49.17593 2.29337 7260 ft 273 kts 268°
2026-05-08 19:26 49.17556 2.26417 6894 ft 275 kts 268°
2026-05-08 19:27 49.17522 2.23497 6590 ft 274 kts 268°
2026-05-08 19:27 49.17483 2.20577 6274 ft 274 kts 268°
2026-05-08 19:27 49.17440 2.17671 6094 ft 274 kts 268°
2026-05-08 19:27 49.17304 2.14757 6047 ft 275 kts 255°
2026-05-08 19:28 49.16453 2.12202 6050 ft 269 kts 228°
2026-05-08 19:28 49.15160 2.10170 6053 ft 270 kts 223°
2026-05-08 19:28 49.13792 2.08200 6044 ft 270 kts 222°
2026-05-08 19:28 49.12415 2.06247 6043 ft 270 kts 222°
2026-05-08 19:29 49.11039 2.04308 5996 ft 268 kts 221°
2026-05-08 19:29 49.09692 2.02410 5940 ft 259 kts 221°
2026-05-08 19:29 49.08395 2.00578 5847 ft 250 kts 221°
2026-05-08 19:29 49.07117 1.98822 5623 ft 246 kts 214°
2026-05-08 19:30 49.05545 1.97877 5266 ft 245 kts 183°
2026-05-08 19:30 49.03891 1.98310 4970 ft 242 kts 152°
2026-05-08 19:30 49.02629 1.99954 4693 ft 240 kts 126°
2026-05-08 19:30 49.01686 2.02048 4440 ft 239 kts 122°
2026-05-08 19:31 49.00785 2.04168 4195 ft 237 kts 122°
2026-05-08 19:31 49.00036 2.06347 4069 ft 229 kts 101°
2026-05-08 19:31 49.00137 2.08671 4024 ft 222 kts 76°
2026-05-08 19:31 49.00395 2.11018 4005 ft 222 kts 84°
2026-05-08 19:32 49.00517 2.13329 4010 ft 222 kts 86°
2026-05-08 19:32 49.00626 2.15700 4007 ft 226 kts 86°
2026-05-08 19:32 49.00739 2.18086 4022 ft 226 kts 85°
2026-05-08 19:32 49.00855 2.20468 4014 ft 224 kts 85°
2026-05-08 19:33 49.00971 2.22828 4013 ft 223 kts 85°
2026-05-08 19:33 49.01089 2.25206 3870 ft 228 kts 85°
2026-05-08 19:33 49.01209 2.27627 3574 ft 228 kts 85°
2026-05-08 19:33 49.01327 2.29999 3273 ft 221 kts 85°
2026-05-08 19:34 49.01442 2.32285 2990 ft 211 kts 85°
2026-05-08 19:34 49.01550 2.34446 2711 ft 197 kts 85°
2026-05-08 19:34 49.01652 2.36460 2448 ft 184 kts 85°
2026-05-08 19:34 49.01748 2.38346 2211 ft 172 kts 85°
2026-05-08 19:35 49.01836 2.40089 1991 ft 160 kts 85°
2026-05-08 19:35 49.01919 2.41718 1802 ft 147 kts 85°
2026-05-08 19:35 49.01998 2.43256 1595 ft 147 kts 85°
2026-05-08 19:35 49.02078 2.44812 1403 ft 147 kts 85°
2026-05-08 19:36 49.02150 2.46339 1227 ft 143 kts 85°
2026-05-08 19:36 49.02220 2.47862 1043 ft 147 kts 84°
2026-05-08 19:36 49.02307 2.49426 836 ft 149 kts 83°
2026-05-08 19:36 49.02395 2.50990 597 ft 147 kts 84°
2026-05-08 19:37 49.02476 2.52534 389 ft 144 kts 85°
2026-05-08 19:37 49.02550 2.53926 355 ft 112 kts 85°
2026-05-08 19:37 49.02600 2.54830 354 ft 55 kts 85°
2026-05-08 19:37 49.02586 2.55219 357 ft 32 kts 109°
2026-05-08 19:38 49.02515 2.55469 358 ft 14 kts 115°
2026-05-08 19:38 49.02485 2.55566 357 ft 8 kts 115°
2026-05-08 19:38 49.02447 2.55609 356 ft 8 kts 176°
2026-05-08 19:38 49.02400 2.55614 353 ft 0 kts 175°
2026-05-08 19:40 49.02398 2.55615 353 ft 2 kts 175°
2026-05-08 19:40 49.02326 2.55624 362 ft 17 kts 175°
2026-05-08 19:40 49.02196 2.55640 357 ft 15 kts 175°
2026-05-08 19:40 49.02133 2.55647 353 ft 0 kts 176°
2026-05-08 19:41 49.02118 2.55649 353 ft 5 kts 176°
2026-05-08 19:41 49.02077 2.55603 360 ft 14 kts 237°
2026-05-08 19:41 49.02057 2.55404 353 ft 21 kts 264°
2026-05-08 19:42 49.02048 2.55190 353 ft 20 kts 265°
2026-05-08 19:42 49.02034 2.54980 357 ft 20 kts 257°
2026-05-08 19:42 49.01947 2.54844 355 ft 19 kts 184°
2026-05-08 19:42 49.01857 2.54851 358 ft 11 kts 176°
2026-05-08 19:43 49.01779 2.54861 353 ft 11 kts 175°
2026-05-08 19:43 49.01703 2.54873 355 ft 11 kts 173°
2026-05-08 19:43 49.01629 2.54884 353 ft 11 kts 177°
2026-05-08 19:43 49.01557 2.54892 353 ft 10 kts 173°
2026-05-08 19:44 49.01487 2.54899 358 ft 10 kts 175°
2026-05-08 19:44 49.01419 2.54913 353 ft 10 kts 170°
2026-05-08 19:44 49.01354 2.54937 353 ft 9 kts 163°
2026-05-08 19:44 49.01291 2.54964 356 ft 10 kts 161°
2026-05-08 19:45 49.01224 2.54994 356 ft 10 kts 160°
2026-05-08 19:45 49.01153 2.55023 361 ft 12 kts 161°
2026-05-08 19:45 49.01073 2.55057 358 ft 12 kts 165°
2026-05-08 19:45 49.00993 2.55091 353 ft 12 kts 166°
2026-05-08 19:46 49.00917 2.55124 358 ft 10 kts 165°
2026-05-08 19:46 49.00850 2.55153 356 ft 10 kts 163°
2026-05-08 19:46 49.00709 2.55215 361 ft 13 kts 165°
2026-05-08 19:47 49.00618 2.55254 360 ft 14 kts 162°
2026-05-08 19:47 49.00523 2.55297 359 ft 15 kts 164°
2026-05-08 19:47 49.00419 2.55342 353 ft 15 kts 165°
2026-05-08 19:47 49.00362 2.55365 353 ft 8 kts 163°
2026-05-08 19:48 49.00303 2.55391 358 ft 10 kts 165°
2026-05-08 19:48 49.00216 2.55430 360 ft 16 kts 165°
2026-05-08 19:48 49.00102 2.55480 355 ft 17 kts 164°
2026-05-08 19:48 48.99993 2.55474 359 ft 17 kts 233°
2026-05-08 19:49 48.99977 2.55305 353 ft 16 kts 266°
2026-05-08 19:49 48.99968 2.55141 353 ft 15 kts 265°
2026-05-08 19:49 48.99960 2.54983 358 ft 15 kts 266°
2026-05-08 19:49 48.99951 2.54830 356 ft 14 kts 265°
2026-05-08 19:50 48.99944 2.54687 358 ft 13 kts 266°
2026-05-08 19:50 48.99938 2.54548 353 ft 13 kts 267°
2026-05-08 19:50 48.99929 2.54413 358 ft 13 kts 265°
2026-05-08 19:50 48.99922 2.54282 353 ft 12 kts 265°
2026-05-08 19:51 48.99916 2.54151 361 ft 13 kts 266°
2026-05-08 19:51 48.99909 2.54002 356 ft 15 kts 264°
2026-05-08 19:51 48.99899 2.53824 353 ft 18 kts 265°
2026-05-08 19:51 48.99890 2.53710 353 ft 3 kts 247°
2026-05-08 19:52 48.99870 2.53680 358 ft 8 kts 205°
2026-05-08 19:52 48.99788 2.53625 357 ft 17 kts 219°
2026-05-08 19:52 48.99692 2.53501 356 ft 18 kts 221°
2026-05-08 19:52 48.99610 2.53359 358 ft 18 kts 245°
2026-05-08 19:53 48.99502 2.53318 353 ft 17 kts 175°
2026-05-08 19:53 48.99384 2.53330 355 ft 17 kts 175°
2026-05-08 19:53 48.99272 2.53349 357 ft 16 kts 162°
2026-05-08 19:53 48.99231 2.53452 358 ft 11 kts 119°
2026-05-08 19:54 48.99182 2.53502 355 ft 6 kts 133°
2026-05-08 19:54 48.99178 2.53546 353 ft 2 kts 90°
2026-05-08 19:54 48.99178 2.53568 353 ft 2 kts 87°
2026-05-08 19:54 48.99179 2.53587 353 ft 0 kts 86°